Tracking 22441 objects as of 28-Feb-2021
HD Live streaming from Space Station
objects crossing your sky now

FREGAT DEB

Track FREGAT DEB now!
10-day predictions


NORAD ID: 46007
Int'l Code: 2011-037HJ
Perigee: 629.3 km
Apogee: 4,676.0 km
Inclination: 51.5 °
Period: 142.2 minutes
Semi major axis: 9023 km
RCS: Unknown
Launch date: July 18, 2011
Source: Commonwealth of Independent States (former USSR) (CIS)
Launch site: TYURATAM MISSILE AND SPACE COMPLEX (TTMTR)

Note: This is SATELLITE DEBRIS
aabbcc
Your satellite tracking list
Your tracking list is empty




NASA's NSSDC Master Catalog

Two Line Element Set (TLE):
1 46007U 11037HJ  21025.97907746  .00090216  00000-0  11167+0 0  9991
2 46007  51.4623 304.9819 2242271 353.8560   3.8472 10.12814645 17626
Source of the keplerian elements: AFSPC